STARLINK-1879 (47164 NORAD) Tracking and Keplerian Element Data

This shows tracking and keplerian element data for the satellite.

Feedback or suggestion? Click here.




ElementValue
Catalog47164
NameSTARLINK-1879
Epoch Orbit177
Epoch Day15.91667824
Epoch Year2021
RAAN98.5793
Inclination53.0548
Eccentricity0.0001328
Argument of Perigee40.0147
Mean Anonmoly349.0133
Mean Motion15.62798209
Decay Rate-9.78E-05
L11 47164U 20088AU 21015.91667824 -.00009780 00000-0 -10092-3 0 9993
L22 47164 53.0548 98.5793 0001328 40.0147 349.0133 15.62798209 1777

Live tracking and technical data element details for STARLINK-1879 (NORAD 47164). STARLINK-1879 can be tracked NOW for your location showing map with azimuth and elevation plus other details from your city location.

Track the satellite on the map from your city or location and see movement details for azimuth, elevation, latitude, longitude, range, height, and movement on the map or in text.







IsCatalogInMostPopularTable: catalog: 47164, numindb: 20
Update: records affected: 1



GetName: 47164 STARLINK-1879

Hit Count: updated at: Sun, 17 Jan 2021 09:24:46 GMT